Terminal Aerodrome Forecast
Issued by NWS Portland, OR

Current Version | Previous Version | Text Only | Print | Product List | Glossary On
Versions: 1 2 3 4 5 6 7 8 9 10 11 12 13 14 15 16 17 18 19 20 21 22 23 24 25 26 27 28 29 30 31 32 33 34 35 36 37 38 39 40 41 42 43 44 45 46 47 48 49 50
000
FTUS46 KPQR 251512 AAA
TAFPDX
TAF AMD
KPDX 251512Z 2515/2612 32003KT P6SM SCT015 BKN030 OVC035
     FM251900 29004KT P6SM SCT025 OVC035
     FM252300 34006KT P6SM BKN035 BKN250
     FM260500 32008KT P6SM OVC035
     FM261100 32003KT P6SM BKN020 OVC035=

USA.gov is the U.S. government's official web portal to all federal, state and local government web resources and services.